[[{"header":{"parameterUnit":"m.s-1","parameterCategory":1,"la1":30.2991,"la2":30.254,"lo1":-89.0895,"lo2":-89.0444,"dy":0.0017,"dx":0.0017,"nx":28,"ny":28,"refTime":"2023-08-11T03:00:00:Z","depth":0,"parameterNumber":2,"parameterNumberName":"U-component_of_WINDS"},"data":[0,0,0,0,0,0,0,0,0,0,0,0,0,0,0,0,0,0,0,0,0,0,0,0,0,0,0,0,0,0,0,0,0,0,0,0,0,0,0,0,0,0,0,0,0,0,0,0,0,0,0,0,0,0,0,0,0,0,0.889,0.8892,0,0.9043,0.9044,0.9046,0.9115,0.9115,0.9114,0.9114,0.9271,0.9275,0.928,0,0,0,0,0,0,0,0,0,0,0,0,0,0.8659,0.8663,0.889,0.8892,0.8894,0.9042,0.9044,0.9046,0.9115,0.9115,0.9114,0.9114,0.927,0.9275,0.928,0,0,0,0,0,0,0,0,0,0,0,0,0,0.878,0.8664,0.889,0.8946,0.8953,0.9042,0.9044,0.9047,0.9115,0.9115,0.9114,0.9114,0.9268,0.9274,0.9281,0.9326,0,0,0.9301,0.9303,0,0,0,0,0,0,0,0,0.8773,0.8788,0.8936,0.8942,0.895,0.9059,0.902,0.9141,0.9115,0.9053,0.9114,0.9114,0.9201,0.9213,0.9242,0.9333,0.934,0.9301,0.9305,0.9308,0.931,0,0,0,0,0,0,0,0.8764,0.8782,0.8951,0.8938,0.8946,0.8964,0.898,0.9043,0.9127,0.9059,0.9064,0.9081,0.9205,0.9236,0.9246,0.9342,0.9301,0.9307,0.9311,0.9313,0.9478,0.9478,0,0,0,0,0,0,0.8747,0.8775,0.8946,0.8955,0.8859,0.8968,0.8987,0.9024,0.9126,0.9141,0.9081,0.9084,0.9225,0.9239,0.9252,0.9312,0.9308,0.9314,0.9318,0.9477,0.9478,0.9479,0,0,0,0,0,0,0.8742,0.8761,0.894,0.8866,0.889,0.8972,0.9014,0.9028,0.9059,0.9143,0.9158,0.9097,0.9225,0.9243,0.9307,0.9318,0.9317,0.9323,0.9477,0.9478,0.9478,0.9431,0,0,0,0,0,0,0.8735,0.8759,0.8777,0.8866,0.8894,0.8992,0.9015,0.9031,0.907,0.9074,0.9163,0.9177,0.9226,0.9297,0.9313,0.9327,0.9328,0.9476,0.9477,0.9478,0.9432,0.943,0.9428,0,0,0,0,0,0.8726,0.8758,0.8778,0.8798,0.8918,0.8992,0.9008,0.9064,0.907,0.9089,0.9143,0.9174,0.9314,0.9303,0.9322,0.9338,0.9476,0.9477,0.9478,0.9433,0.943,0.9428,0,0,0,0,0,0,0.8668,0.8771,0.8794,0.8855,0.8914,0.9004,0.9029,0.906,0.9118,0.9121,0.9188,0.9207,0.9265,0.9308,0.9294,0.9387,0.9398,0.9403,0.9357,0.9355,0.9353,0.9342,0.9333,0,0,0,0,0,0.8663,0.8714,0.8801,0.8847,0.8875,0.8947,0.8981,0.9019,0.9083,0.9108,0.9167,0.9228,0.9286,0.9323,0.9381,0.9438,0.9458,0.9458,0.9457,0.9455,0.9458,0.9492,0.9493,0.9482,0.9482,0.9482,0,0,0.8652,0.8714,0.8743,0.8837,0.8887,0.8939,0.8968,0.9021,0.906,0.9117,0.9181,0.9226,0.9299,0.9359,0.9389,0.9397,0.9466,0.9456,0.9454,0.9459,0.9493,0.9494,0.9495,0.9483,0.9483,0.9483,0,0,0.8659,0.8711,0.8755,0.8804,0.888,0.8927,0.8937,0.9022,0.9054,0.9119,0.9162,0.921,0.9308,0.9358,0.9396,0.942,0.9451,0.9437,0.9428,0.946,0.9461,0.9462,0.9471,0.9473,0.944,0.944,0.944,0,0.8636,0.8716,0.8774,0.8825,0.8865,0.8918,0.8963,0.9008,0.9099,0.9125,0.9132,0.9256,0.9309,0.9382,0.9387,0.9417,0.9431,0.9428,0.9456,0.9458,0.9459,0.9469,0.9472,0.9438,0.9438,0.9439,0.9439,0,0.8684,0.8738,0.8765,0.885,0.8893,0.8941,0.9006,0.9043,0.9076,0.9123,0.9188,0.9253,0.9324,0.9344,0.9378,0.9422,0.9425,0.9443,0.9455,0.9457,0.9467,0.9471,0.9435,0.9436,0.9437,0.9437,0,0,0.8659,0.8776,0.8785,0.8824,0.8911,0.8954,0.9004,0.9074,0.9104,0.9164,0.9207,0.9289,0.9306,0.9349,0.9389,0.9416,0.9431,0.9431,0.9434,0.9429,0.9484,0.947,0.9473,0.9452,0.9453,0.9453,0.9478,0,0.8678,0.877,0.8824,0.8894,0.8945,0.8995,0.9038,0.9096,0.914,0.919,0.9239,0.9296,0.9314,0.934,0.937,0.9423,0.9443,0.9422,0.9493,0.9495,0.9474,0.9478,0.9464,0.9484,0.9482,0.9483,0.9483,0,0.8713,0.8772,0.8847,0.8927,0.8951,0.8989,0.9057,0.9103,0.917,0.92,0.9247,0.9287,0.9341,0.9348,0.9425,0.9409,0.9441,0.9472,0.9474,0.9483,0.949,0.9488,0.9492,0.9495,0.949,0.9489,0.9489,0,0.8688,0.8786,0.8844,0.8876,0.8971,0.8996,0.9037,0.9103,0.9141,0.9201,0.9226,0.9291,0.9327,0.9376,0.9432,0.9432,0.9502,0.9514,0.9529,0.9528,0.9543,0.9541,0.9552,0.9562,0.9562,0.9562,0.9562,0,0.8704,0.8748,0.8834,0.8869,0.8919,0.898,0.9028,0.9073,0.9131,0.9176,0.9223,0.9264,0.9335,0.9385,0.9429,0.9485,0.9501,0.9527,0.9539,0.9524,0.952,0.9546,0.9546,0.9563,0.9562,0.9562,0.9562,0,0.8685,0.8744,0.881,0.8895,0.8917,0.895,0.9023,0.9059,0.9105,0.9161,0.9178,0.9251,0.9312,0.9372,0.9454,0.9484,0.9539,0.9554,0.9517,0.9523,0.9535,0.9533,0.9564,0.9571,0.9575,0.9575,0.9575,0,0.8692,0.8727,0.8815,0.8848,0.8888,0.8941,0.898,0.9041,0.9079,0.9157,0.9184,0.9248,0.9303,0.9398,0.9459,0.9522,0.9539,0.9545,0.9549,0.9532,0.9539,0.9537,0.9541,0.9543,0.9543,0.9543,0.9542,0,0.8697,0.8725,0.8779,0.8844,0.8889,0.8943,0.8999,0.9023,0.9094,0.9136,0.9198,0.9241,0.9324,0.9388,0.9457,0.95,0.9533,0.954,0.9547,0.9533,0.951,0.9523,0.9513,0.954,0.954,0.954,0.954,0.9541,0.8692,0.8725,0.8792,0.8851,0.8899,0.895,0.8988,0.9039,0.9092,0.9164,0.9197,0.926,0.9325,0.9422,0.9464,0.9514,0.9523,0.9533,0.9535,0.9537,0.9534,0.9501,0.9527,0.9527,0.9527,0.9527,0.9528,0,0.87,0.8746,0.8799,0.8875,0.8922,0.8948,0.9011,0.9048,0.9103,0.916,0.9213,0.9285,0.9346,0.9411,0.9476,0.9504,0.9521,0.9519,0.9518,0.9527,0.9522,0.951,0.9504,0.9504,0.9504,0.9504,0.9504,0.9504,0.871,0.8768,0.8803,0.8884,0.893,0.8992,0.9025,0.9072,0.9118,0.9196,0.9248,0.9289,0.935,0.9419,0.9477,0.9494,0.9517,0.951,0.9532,0.9526,0.9528,0.9529,0.9518,0.9515,0.9515,0.9534,0.9534,0.9534]},{"header":{"parameterUnit":"m.s-1","parameterCategory":1,"la1":30.2991,"la2":30.254,"lo1":-89.0895,"lo2":-89.0444,"dy":0.0017,"dx":0.0017,"nx":28,"ny":28,"refTime":"2023-08-11T03:00:00:Z","depth":0,"parameterNumber":3,"parameterNumberName":"V-component_of_WINDS"},"data":[0,0,0,0,0,0,0,0,0,0,0,0,0,0,0,0,0,0,0,0,0,0,0,0,0,0,0,0,0,0,0,0,0,0,0,0,0,0,0,0,0,0,0,0,0,0,0,0,0,0,0,0,0,0,0,0,0,0,5.5736,5.5736,0,5.5708,5.5708,5.5708,5.5631,5.5629,5.5627,5.5626,5.5599,5.56,5.56,0,0,0,0,0,0,0,0,0,0,0,0,0,5.5725,5.5726,5.5736,5.5736,5.5736,5.5708,5.5708,5.5708,5.5631,5.5629,5.5627,5.5625,5.5599,5.56,5.5601,0,0,0,0,0,0,0,0,0,0,0,0,0,5.5717,5.5726,5.5737,5.5694,5.569,5.5709,5.5708,5.5708,5.5631,5.5629,5.5626,5.5624,5.5598,5.5599,5.5601,5.5659,0,0,5.5605,5.5605,0,0,0,0,0,0,0,0,5.5718,5.5718,5.5701,5.5697,5.5693,5.567,5.5694,5.5691,5.5632,5.5654,5.5626,5.5623,5.5625,5.5624,5.5624,5.5657,5.5656,5.5605,5.5605,5.5606,5.5606,0,0,0,0,0,0,0,5.5718,5.5718,5.5725,5.5701,5.5696,5.5677,5.5673,5.5693,5.5654,5.5652,5.5646,5.5644,5.5622,5.5623,5.5623,5.5656,5.5605,5.5606,5.5607,5.5607,5.5734,5.5737,0,0,0,0,0,0,5.5725,5.5719,5.5726,5.5725,5.5699,5.5679,5.5675,5.568,5.5653,5.5647,5.5646,5.564,5.5622,5.5621,5.5622,5.5687,5.5606,5.5607,5.5608,5.5732,5.5735,5.5738,0,0,0,0,0,0,5.5725,5.5726,5.5727,5.572,5.5719,5.5682,5.5689,5.5681,5.5682,5.5649,5.5642,5.5654,5.562,5.562,5.565,5.5685,5.5608,5.5609,5.5729,5.5733,5.5736,5.5818,0,0,0,0,0,0,5.5725,5.5726,5.5748,5.5721,5.572,5.5756,5.5691,5.5682,5.5684,5.5676,5.5654,5.5648,5.5618,5.5648,5.5651,5.5685,5.561,5.5725,5.5731,5.5735,5.5812,5.5824,5.5835,0,0,0,0,0,5.5725,5.5772,5.5749,5.575,5.5745,5.5758,5.5757,5.572,5.5687,5.5708,5.5687,5.5649,5.5681,5.5652,5.5654,5.5689,5.5723,5.5729,5.5735,5.5807,5.5822,5.5834,0,0,0,0,0,0,5.5804,5.5768,5.5742,5.5782,5.5774,5.5745,5.577,5.5738,5.5739,5.5732,5.5687,5.5683,5.5719,5.5707,5.5676,5.5744,5.5696,5.5702,5.575,5.5764,5.5775,5.5776,5.5611,0,0,0,0,0,5.5826,5.5839,5.5807,5.5846,5.5842,5.5808,5.5812,5.5784,5.5774,5.577,5.5751,5.5743,5.575,5.5757,5.5762,5.581,5.5804,5.5836,5.5847,5.5857,5.5863,5.5887,5.59,5.5757,5.5757,5.5757,0,0,5.5872,5.5854,5.5865,5.5861,5.5851,5.5865,5.5805,5.5823,5.5833,5.5773,5.5799,5.5785,5.5773,5.5812,5.5829,5.5804,5.5901,5.5864,5.5872,5.5873,5.5894,5.5908,5.592,5.5761,5.5761,5.576,0,0,5.5963,5.5951,5.5981,5.5972,5.5958,5.5934,5.5942,5.5918,5.5906,5.5932,5.5887,5.5899,5.5914,5.5907,5.5905,5.5994,5.5959,5.5997,5.6056,5.608,5.6092,5.6101,5.6132,5.6144,5.6004,5.6004,5.6004,0,5.6021,5.604,5.6001,5.6021,5.6021,5.5967,5.5998,5.5992,5.598,5.5981,5.5954,5.5971,5.5959,5.5995,5.6017,5.6018,5.6025,5.5999,5.6093,5.6103,5.6111,5.614,5.6152,5.6009,5.6008,5.6008,5.6007,0,5.6113,5.6127,5.6154,5.6143,5.6146,5.6172,5.6137,5.6145,5.6118,5.6097,5.6125,5.6109,5.611,5.6117,5.6091,5.615,5.6135,5.6101,5.6052,5.613,5.6156,5.6167,5.6015,5.6014,5.6012,5.6011,0,0,5.6252,5.6219,5.6229,5.6224,5.6204,5.6215,5.6239,5.6239,5.6246,5.6241,5.6259,5.6273,5.6242,5.624,5.6213,5.6235,5.6305,5.6198,5.6197,5.6218,5.6369,5.6393,5.6407,5.6283,5.6285,5.6286,5.637,0,5.6336,5.6373,5.6339,5.6383,5.6395,5.6345,5.6365,5.6356,5.6338,5.6347,5.6327,5.6337,5.6295,5.6294,5.6313,5.6293,5.6335,5.6287,5.6299,5.63,5.6303,5.6421,5.6447,5.6526,5.638,5.6382,5.6383,0,5.6439,5.6437,5.6483,5.646,5.6464,5.6483,5.6481,5.649,5.6478,5.6464,5.6462,5.6429,5.6451,5.6405,5.6434,5.6402,5.6406,5.6397,5.6399,5.6398,5.6345,5.6422,5.655,5.6562,5.6399,5.6398,5.6396,0,5.6534,5.6544,5.6571,5.6569,5.6543,5.6558,5.6548,5.6534,5.6537,5.6536,5.6537,5.6539,5.6539,5.6542,5.651,5.6479,5.6544,5.6494,5.6532,5.6533,5.6547,5.6546,5.6677,5.6552,5.6551,5.6551,5.6551,0,5.6631,5.6661,5.6614,5.6631,5.6663,5.6623,5.6656,5.6641,5.663,5.6644,5.6601,5.6615,5.6573,5.6583,5.6559,5.6587,5.6588,5.6577,5.657,5.658,5.6581,5.6581,5.6574,5.6554,5.6554,5.6553,5.6553,0,5.6742,5.6712,5.6739,5.6713,5.6707,5.6732,5.6709,5.6725,5.6704,5.6722,5.6724,5.6693,5.6702,5.6671,5.6676,5.666,5.6701,5.6685,5.6704,5.6699,5.6739,5.6735,5.6872,5.6888,5.6754,5.6755,5.6757,0,5.6805,5.6826,5.6802,5.6808,5.6801,5.6811,5.6813,5.6776,5.678,5.677,5.6786,5.6792,5.6795,5.6812,5.679,5.6794,5.6777,5.6825,5.6777,5.6787,5.6777,5.6776,5.6777,5.6835,5.6836,5.6838,5.6839,0,5.692,5.6904,5.6908,5.6908,5.6912,5.691,5.6906,5.6913,5.6873,5.6881,5.6889,5.6892,5.6896,5.6903,5.6902,5.6892,5.6859,5.6854,5.6863,5.6873,5.6883,5.6877,5.673,5.6851,5.685,5.6849,5.6848,5.6848,5.7007,5.7024,5.701,5.7017,5.7009,5.7006,5.7019,5.7,5.7007,5.7007,5.6985,5.6999,5.6987,5.6982,5.6976,5.6987,5.6965,5.6978,5.6981,5.6984,5.699,5.6882,5.6987,5.6986,5.6986,5.6986,5.6985,0,5.7119,5.7108,5.7114,5.7109,5.7115,5.7083,5.7077,5.7083,5.7095,5.7088,5.7091,5.7102,5.7108,5.7086,5.709,5.7102,5.7087,5.7104,5.7102,5.7101,5.7011,5.7002,5.7116,5.7116,5.7116,5.7116,5.7116,5.7116,5.7178,5.7204,5.7187,5.7209,5.7197,5.721,5.7209,5.7206,5.7199,5.7213,5.7217,5.7203,5.719,5.7192,5.7197,5.719,5.7193,5.7216,5.7204,5.712,5.7107,5.7095,5.7087,5.7217,5.7217,5.7293,5.7294,5.7294]}]]